EW6430 Weather Reports


time (UTC)temp
F
wind
direction
speed
knots
gust
knots
rain 1hr
in
rain 24hr
in
rain mn
in
humidity
%
barometer
mb
20260506190225 70 196 0.9 4.3 0.00 0.00 0.00 56 1004.2
20260506185713 70 188 0.9 4.3 0.00 0.00 0.00 56 1004.2
20260506185201 70 192 0.9 4.3 0.00 0.00 0.00 55 1004.1
20260506184649 70 132 0.0 2.6 0.00 0.00 0.00 54 1004.1
20260506184521 70 132 0.0 3.5 0.00 0.00 0.00 54 1003.7
20260506184134 71 132 0.0 3.5 0.00 0.00 0.00 53 1004.0
20260506183624 71 161 0.9 4.3 0.00 0.00 0.00 52 1003.9
20260506183043 71 158 0.9 4.3 0.00 0.00 0.00 52 1003.5
20260506182559 71 145 1.7 7.8 0.00 0.00 0.00 51 1003.8
20260506181526 72 165 2.6 5.2 0.00 0.00 0.00 51 1003.9
20260506181502 71 165 1.7 5.2 0.00 0.00 0.00 51 1003.5
20260506181012 72 200 3.5 9.6 0.00 0.00 0.00 50 1003.9
20260506180455 72 170 4.3 9.6 0.00 0.00 0.00 50 1003.9
20260506180023 72 196 2.6 8.7 0.00 0.00 0.00 50 1003.4
20260506175945 72 140 4.3 8.7 0.00 0.00 0.00 50 1003.9
20260506175434 73 165 3.5 9.6 0.00 0.00 0.00 49 1003.8
20260506174920 73 151 3.5 9.6 0.00 0.00 0.00 50 1003.8
20260506174555 72 247 3.5 9.6 0.00 0.00 0.00 49 1003.4
20260506174412 73 219 3.5 9.6 0.00 0.00 0.00 50 1003.8
20260506173358 73 196 3.5 8.7 0.00 0.00 0.00 50 1003.9
20260506173132 73 227 2.6 8.7 0.00 0.00 0.00 50 1003.5
20260506172847 73 225 2.6 8.7 0.00 0.00 0.00 50 1004.0
20260506172332 74 186 3.5 8.7 0.00 0.00 0.00 50 1003.9
20260506171815 74 213 4.3 10.4 0.00 0.00 0.00 50 1003.8
20260506171550 73 176 3.5 8.7 0.00 0.00 0.00 50 1003.4
20260506170751 74 234 3.5 8.7 0.00 0.00 0.00 50 1003.8
20260506170244 74 242 4.3 14.8 0.00 0.00 0.00 49 1003.8
20260506170118 74 207 4.3 13.9 0.00 0.00 0.00 49 1003.4
20260506165226 74 161 4.3 10.4 0.00 0.00 0.00 50 1003.8
20260506164728 74 161 2.6 7.0 0.00 0.00 0.00 51 1003.9
20260506164500 73 187 2.6 7.0 0.00 0.00 0.00 51 1003.4
20260506164217 74 219 2.6 7.0 0.00 0.00 0.00 52 1003.9
20260506163705 74 240 2.6 7.0 0.00 0.00 0.00 52 1003.9
20260506163153 73 233 2.6 7.0 0.00 0.00 0.00 52 1003.9
20260506163052 73 246 1.7 6.1 0.00 0.00 0.00 52 1003.5
20260506162646 73 217 2.6 7.0 0.00 0.00 0.00 51 1004.0
20260506162156 73 225 3.5 7.0 0.00 0.00 0.00 51 1004.0
20260506161648 73 245 3.5 7.0 0.00 0.00 0.00 51 1004.1
20260506161510 73 240 2.6 7.0 0.00 0.00 0.00 51 1003.7
20260506161139 73 238 2.6 7.0 0.00 0.00 0.00 51 1004.2
20260506160633 74 218 2.6 6.1 0.00 0.00 0.00 50 1004.2
20260506160122 74 278 3.5 8.7 0.00 0.00 0.00 50 1004.3
20260506160045 73 278 3.5 8.7 0.00 0.00 0.00 50 1003.9
20260506155601 74 225 4.3 10.4 0.00 0.00 0.00 49 1004.3
20260506155048 74 234 4.3 10.4 0.00 0.00 0.00 49 1004.4
20260506154533 74 252 2.6 10.4 0.00 0.00 0.00 50 1004.5
20260506154026 74 245 2.6 5.2 0.00 0.00 0.00 50 1004.5
20260506153518 74 193 3.5 9.6 0.00 0.00 0.00 50 1004.6
20260506153051 74 222 3.5 9.6 0.00 0.00 0.00 49 1004.1
20260506153004 74 237 4.3 9.6 0.00 0.00 0.00 49 1004.5
20260506152502 74 220 4.3 10.4 0.00 0.00 0.00 50 1004.6
20260506151530 74 189 5.2 10.4 0.00 0.00 0.00 49 1004.2
20260506151448 74 207 5.2 9.6 0.00 0.00 0.00 49 1004.8
20260506150943 74 271 4.3 7.8 0.00 0.00 0.00 49 1004.9
20260506150435 75 238 4.3 7.8 0.00 0.00 0.00 48 1004.9
20260506145920 75 229 5.2 8.7 0.00 0.00 0.00 49 1004.9
20260506145406 75 218 5.2 8.7 0.00 0.00 0.00 49 1005.0
20260506144853 75 241 3.5 9.6 0.00 0.00 0.00 48 1004.9
20260506144523 74 238 3.5 7.8 0.00 0.00 0.00 49 1004.4
20260506144342 75 244 3.5 9.6 0.00 0.00 0.00 49 1005.0
20260506143831 75 232 5.2 12.2 0.00 0.00 0.00 47 1004.9
20260506143104 75 252 7.0 12.2 0.00 0.00 0.00 47 1004.4
20260506142813 75 216 3.5 9.6 0.00 0.00 0.00 48 1005.1
20260506142258 75 238 4.3 11.3 0.00 0.00 0.00 49 1005.1
20260506141750 75 235 4.3 11.3 0.00 0.00 0.00 48 1005.2
20260506141520 74 238 5.2 11.3 0.00 0.00 0.00 48 1004.7
20260506141238 75 244 4.3 9.6 0.00 0.00 0.00 48 1005.2
20260506140212 76 244 7.0 13.0 0.00 0.00 0.00 46 1005.4
20260506140046 75 241 4.3 13.0 0.00 0.00 0.00 46 1004.8
20260506135702 75 225 7.0 13.9 0.00 0.00 0.00 46 1005.4
20260506135146 75 242 7.0 13.9 0.00 0.00 0.00 45 1005.4
20260506134630 75 200 7.8 16.5 0.00 0.00 0.00 44 1005.3
20260506134505 75 197 7.8 16.5 0.00 0.00 0.00 44 1004.8
20260506134120 76 180 7.0 16.5 0.00 0.00 0.00 45 1005.3
20260506133606 76 175 6.1 13.0 0.00 0.00 0.00 45 1005.3
20260506133056 76 241 5.2 13.0 0.00 0.00 0.00 46 1005.4
20260506133033 75 281 7.8 13.0 0.00 0.00 0.00 45 1004.8
20260506132546 76 245 4.3 12.2 0.00 0.00 0.00 45 1005.4
20260506132032 76 217 4.3 11.3 0.00 0.00 0.00 45 1005.3
20260506131600 76 248 4.3 11.3 0.00 0.00 0.00 45 1004.9
20260506131520 76 257 3.5 12.2 0.00 0.00 0.00 45 1005.5
20260506131009 76 218 4.3 12.2 0.00 0.00 0.00 47 1005.5
20260506130457 76 228 5.2 12.2 0.00 0.00 0.00 47 1005.5
20260506130023 75 207 7.0 15.6 0.00 0.00 0.00 46 1004.9
20260506125944 75 205 6.1 15.6 0.00 0.00 0.00 46 1005.5
20260506125428 75 214 6.1 15.6 0.00 0.00 0.00 45 1005.6
20260506124918 75 223 7.0 15.6 0.00 0.00 0.00 45 1005.7
20260506124546 74 184 6.1 14.8 0.00 0.00 0.00 46 1005.2
20260506124404 75 216 7.0 15.6 0.00 0.00 0.00 46 1005.7
20260506123851 76 238 6.1 13.9 0.00 0.00 0.00 47 1005.7
20260506123336 75 188 6.1 13.9 0.00 0.00 0.00 46 1005.7
20260506123002 74 160 4.3 13.9 0.00 0.00 0.00 47 1005.3
20260506122822 75 254 7.0 14.8 0.00 0.00 0.00 47 1005.9
20260506122306 75 223 6.1 14.8 0.00 0.00 0.00 47 1005.8
20260506121754 75 181 6.1 13.9 0.00 0.00 0.00 50 1005.7
20260506121538 74 263 3.5 13.9 0.00 0.00 0.00 51 1005.3
20260506121249 74 206 6.1 13.9 0.00 0.00 0.00 51 1005.9
20260506120733 73 266 7.0 13.9 0.00 0.00 0.00 50 1005.8
20260506120218 74 248 7.8 14.8 0.00 0.00 0.00 51 1005.9
20260506120057 73 255 7.8 14.8 0.00 0.00 0.00 50 1005.4
20260506115702 74 202 7.0 14.8 0.00 0.00 0.00 50 1005.8
20260506115148 74 222 6.1 12.2 0.00 0.00 0.00 50 1005.9
20260506114631 74 248 7.0 13.9 0.00 0.00 0.00 49 1005.9
20260506114504 73 263 4.3 13.9 0.00 0.00 0.00 50 1005.4
20260506114116 74 213 7.8 13.9 0.00 0.00 0.00 50 1005.9
20260506113049 74 157 7.0 13.9 0.00 0.00 0.00 51 1005.8
20260506113023 73 137 4.3 13.9 0.00 0.00 0.00 51 1005.3
20260506112545 73 198 7.8 13.0 0.00 0.00 0.00 53 1005.9
20260506111542 72 243 7.8 15.6 0.00 0.00 0.00 53 1005.4
20260506110949 73 199 7.8 15.6 0.00 0.00 0.00 53 1005.9
20260506110437 72 236 7.0 15.6 0.00 0.00 0.00 54 1006.0
20260506110006 72 215 7.0 13.0 0.00 0.00 0.00 53 1005.5
20260506105925 73 160 5.2 14.8 0.00 0.00 0.00 54 1006.0
20260506104856 72 242 7.0 13.9 0.00 0.00 0.00 53 1006.1
20260506104626 72 230 8.7 13.9 0.00 0.00 0.00 54 1005.6
20260506104345 72 225 6.1 14.8 0.00 0.00 0.00 54 1006.2
20260506103831 72 252 7.0 14.8 0.00 0.00 0.00 54 1006.2
20260506103150 71 238 6.1 18.2 0.00 0.00 0.00 55 1005.6
20260506102803 72 187 7.0 19.1 0.00 0.00 0.00 55 1006.3
20260506102251 72 240 7.0 14.8 0.00 0.00 0.00 56 1006.1
20260506101735 71 195 7.8 13.9 0.00 0.00 0.00 56 1006.2
20260506101503 71 173 7.8 13.9 0.00 0.00 0.00 56 1005.6
20260506101221 71 269 7.0 16.5 0.00 0.00 0.00 57 1006.2
20260506100709 71 197 6.1 16.5 0.00 0.00 0.00 57 1006.1
20260506100205 71 200 7.0 14.8 0.00 0.00 0.00 56 1006.2
20260506100128 71 225 7.8 14.8 0.00 0.00 0.00 56 1005.7
20260506095642 71 201 7.8 16.5 0.00 0.00 0.00 57 1006.2
20260506095124 71 247 7.0 16.5 0.00 0.00 0.00 57 1006.2
20260506094611 71 261 7.0 13.9 0.00 0.00 0.00 58 1006.2
20260506094606 70 249 5.2 13.9 0.00 0.00 0.00 58 1005.7
20260506094058 70 247 7.8 13.9 0.00 0.00 0.00 58 1006.2
20260506093033 70 246 6.1 16.5 0.00 0.00 0.00 60 1006.1
20260506093006 69 245 7.8 16.5 0.00 0.00 0.00 60 1005.7
20260506092518 69 202 7.0 12.2 0.00 0.00 0.00 60 1006.2
20260506092006 69 260 7.8 15.6 0.00 0.00 0.00 59 1006.1
20260506091534 69 219 7.8 15.6 0.00 0.00 0.00 59 1005.6
20260506091457 70 253 7.8 16.5 0.00 0.00 0.00 60 1006.1
20260506090430 69 199 7.8 20.9 0.00 0.00 0.00 60 1006.1
20260506085414 69 190 8.7 18.2 0.00 0.00 0.00 60 1006.0
20260506084905 69 231 7.8 15.6 0.00 0.00 0.00 62 1006.0
20260506084549 69 244 8.7 15.6 0.00 0.00 0.00 61 1005.4
20260506084406 69 221 6.1 15.6 0.00 0.00 0.00 62 1006.0
20260506083908 69 221 6.1 16.5 0.00 0.00 0.00 62 1005.9
20260506083402 69 257 5.2 16.5 0.00 0.00 0.00 61 1005.9
20260506083039 68 248 2.6 13.0 0.00 0.00 0.00 63 1005.2
20260506082856 69 245 5.2 13.0 0.00 0.00 0.00 62 1005.8
20260506081840 68 222 5.2 12.2 0.00 0.00 0.00 63 1005.8
20260506081513 68 152 5.2 13.9 0.00 0.00 0.00 64 1005.2
20260506081335 68 186 6.1 13.9 0.00 0.00 0.00 65 1005.8
20260506080821 67 234 7.0 17.4 0.00 0.00 0.00 65 1005.8
20260506080314 67 269 7.0 16.5 0.00 0.00 0.00 65 1005.6
20260506073223 66 250 6.1 15.6 0.00 0.00 0.00 67 1005.7
20260506073108 65 242 5.2 15.6 0.00 0.00 0.00 67 1005.1
20260506072715 66 232 6.1 15.6 0.00 0.00 0.00 67 1005.7
20260506072205 65 254 6.1 13.0 0.00 0.00 0.00 68 1005.7
20260506071651 65 252 5.2 13.0 0.00 0.00 0.00 68 1005.7
20260506071530 65 219 5.2 11.3 0.00 0.00 0.00 68 1005.1
20260506071142 65 250 6.1 13.0 0.00 0.00 0.00 68 1005.6
20260506070627 64 255 7.0 14.8 0.00 0.00 0.00 68 1005.5
20260506061423 62 194 7.0 16.5 0.00 0.00 0.00 70 1005.5
20260506060904 62 213 7.0 16.5 0.00 0.00 0.00 70 1005.4
20260506060351 62 225 7.8 21.7 0.00 0.00 0.00 71 1005.3
20260506051132 60 213 4.3 8.7 0.00 0.00 0.00 74 1005.1
20260506050618 59 188 3.5 9.6 0.00 0.00 0.00 73 1005.1
20260506045037 59 236 1.7 7.0 0.00 0.00 0.00 74 1005.0
20260506044523 59 208 1.7 6.1 0.00 0.00 0.00 74 1005.1
20260506044009 59 170 1.7 5.2 0.00 0.00 0.00 74 1005.0
20260506043021 58 246 1.7 5.2 0.00 0.00 0.00 75 1004.4
20260506042944 58 252 1.7 5.2 0.00 0.00 0.00 75 1005.0
20260506042429 58 239 1.7 6.1 0.00 0.00 0.00 75 1004.9
20260506041915 58 236 1.7 6.1 0.00 0.00 0.00 75 1004.9
20260506041550 57 199 1.7 6.1 0.00 0.00 0.00 76 1004.3
20260506041404 58 190 0.9 6.1 0.00 0.00 0.00 76 1004.8
20260506040847 57 193 0.9 6.1 0.00 0.00 0.00 77 1004.8
20260506040333 57 227 0.0 1.7 0.00 0.00 0.00 78 1004.8
20260506040001 56 227 0.0 2.6 0.00 0.00 0.00 78 1004.3
20260506035819 56 227 0.9 3.5 0.00 0.00 0.00 79 1004.8
20260506035306 56 227 0.9 3.5 0.00 0.00 0.00 80 1004.6
20260506034749 55 240 0.0 1.7 0.00 0.00 0.00 81 1004.8
20260506034518 54 229 0.0 1.7 0.00 0.00 0.00 82 1004.1
20260506034235 54 242 0.0 1.7 0.00 0.00 0.00 82 1004.5
20260506033720 54 242 0.0 1.7 0.00 0.00 0.00 83 1004.5
20260506033208 53 242 0.0 1.7 0.00 0.00 0.00 85 1004.5
20260506033037 53 240 0.0 1.7 0.00 0.00 0.00 86 1004.1
20260506032651 52 240 0.0 1.7 0.00 0.00 0.00 87 1004.5
20260506031605 50 244 0.0 0.0 0.00 0.00 0.00 86 1004.2
20260506031110 50 244 0.0 0.0 0.00 0.00 0.00 85 1004.6
20260506030059 50 244 0.0 0.0 0.00 0.00 0.00 85 1004.6
20260506030021 50 244 0.0 0.0 0.00 0.00 0.00 85 1004.1
20260506025534 50 244 0.0 0.0 0.00 0.00 0.00 84 1004.6
20260506025018 50 244 0.0 0.0 0.00 0.00 0.00 84 1004.8
20260506024533 50 244 0.0 0.0 0.00 0.00 0.00 84 1004.2
20260506024456 51 244 0.0 0.0 0.00 0.00 0.00 84 1004.8
20260506023412 51 244 0.0 0.0 0.00 0.00 0.00 83 1004.9
20260506023037 51 244 0.0 0.0 0.00 0.00 0.00 83 1004.3
20260506022855 51 244 0.0 0.0 0.00 0.00 0.00 83 1004.8
20260506022343 51 244 0.0 0.0 0.00 0.00 0.00 82 1004.8
20260506021832 52 244 0.0 0.0 0.00 0.00 0.00 82 1004.9
20260506021324 52 244 0.0 0.0 0.00 0.00 0.00 81 1004.8
20260506020813 52 244 0.0 0.0 0.00 0.00 0.00 80 1004.8
20260506020301 53 244 0.0 0.0 0.00 0.00 0.00 79 1004.8
20260506020133 52 244 0.0 0.0 0.00 0.00 0.00 79 1004.2
20260506015750 53 244 0.0 0.0 0.00 0.00 0.00 79 1004.8
20260506015238 53 244 0.0 0.9 0.00 0.00 0.00 80 1004.6
20260506014728 53 244 0.0 0.9 0.00 0.00 0.00 80 1004.8
20260506014221 53 244 0.0 0.0 0.00 0.00 0.00 80 1004.8
20260506013037 52 244 0.0 1.7 0.00 0.00 0.00 80 1004.2
20260506012648 53 244 0.0 1.7 0.00 0.00 0.00 79 1004.6
20260506012147 53 241 0.0 0.0 0.00 0.00 0.00 79 1004.5
20260506011529 52 241 0.0 0.0 0.00 0.00 0.00 78 1004.1
20260506011144 53 241 0.0 0.0 0.00 0.00 0.00 78 1004.5
20260506010640 53 241 0.0 0.9 0.00 0.00 0.00 78 1004.5
20260506010017 53 241 0.0 0.0 0.00 0.00 0.00 77 1004.0
20260506005635 54 241 0.0 0.0 0.00 0.00 0.00 76 1004.5
20260506004619 54 241 0.0 0.0 0.00 0.00 0.00 75 1004.4
20260506004559 54 241 0.0 0.0 0.00 0.00 0.00 75 1004.0
20260506003614 55 241 0.0 0.0 0.00 0.00 0.00 73 1004.3
20260506003038 55 241 0.0 0.0 0.00 0.00 0.00 72 1004.0
20260506002551 56 241 0.0 0.0 0.00 0.00 0.00 71 1004.4
20260506002047 56 241 0.0 0.0 0.00 0.00 0.00 71 1004.5
20260506001533 56 241 0.0 0.0 0.00 0.00 0.00 70 1004.6
20260506001510 56 241 0.0 0.0 0.00 0.00 0.00 70 1004.2
20260506001024 57 241 0.0 0.0 0.00 0.00 0.00 69 1004.6
20260506000516 58 241 0.0 0.0 0.00 0.00 0.00 68 1004.6
20260506000044 58 241 0.0 0.9 0.00 0.00 0.00 66 1004.3
20260506000006 58 241 0.0 0.9 0.00 0.00 0.00 66 1004.8
20260505235456 59 241 0.0 0.9 0.00 0.00 0.00 66 1004.8
20260505234946 59 241 0.0 0.0 0.00 0.00 0.00 65 1004.9
20260505234511 59 241 0.0 0.0 0.00 0.00 0.00 65 1004.4
20260505234447 59 241 0.0 2.6 0.00 0.00 0.00 65 1004.9
20260505233920 59 241 0.0 2.6 0.00 0.00 0.00 66 1004.9
20260505233405 58 257 0.0 1.7 0.00 0.00 0.00 67 1004.8
20260505233042 57 257 0.0 1.7 0.00 0.00 0.00 68 1004.4
20260505231850 57 244 0.0 0.0 0.00 0.00 0.00 69 1005.0
20260505231527 57 244 0.0 0.0 0.00 0.00 0.00 68 1004.5
20260505231351 58 244 0.0 0.0 0.00 0.00 0.00 68 1005.0
20260505230827 58 244 0.0 1.7 0.00 0.00 0.00 66 1005.0
20260505230329 59 244 0.0 1.7 0.00 0.00 0.00 64 1005.1
20260505230058 58 207 0.0 0.0 0.00 0.00 0.00 64 1004.6
20260505225819 59 207 0.0 0.0 0.00 0.00 0.00 63 1005.0
20260505225306 60 207 0.0 0.0 0.00 0.00 0.00 61 1005.1
20260505224755 60 207 0.0 0.0 0.00 0.00 0.00 60 1005.1
20260505224526 60 207 0.0 0.0 0.00 0.00 0.00 60 1004.6
20260505224242 61 207 0.0 0.0 0.00 0.00 0.00 59 1005.1
20260505223730 62 207 0.0 0.9 0.00 0.00 0.00 57 1005.1
20260505223056 62 207 0.0 0.9 0.00 0.00 0.00 56 1004.6
20260505222706 63 207 0.0 0.9 0.00 0.00 0.00 55 1005.1
20260505222154 64 207 0.0 0.9 0.00 0.00 0.00 54 1005.1
20260505221642 65 207 0.0 4.3 0.00 0.00 0.00 53 1005.1
20260505221514 64 207 0.0 4.3 0.00 0.00 0.00 53 1004.7
20260505221128 65 208 0.0 4.3 0.00 0.00 0.00 52 1005.1
20260505220629 65 151 0.9 2.6 0.00 0.00 0.00 51 1005.1
20260505220146 65 105 0.9 3.5 0.00 0.00 0.00 50 1004.6
20260505220114 66 105 0.9 3.5 0.00 0.00 0.00 50 1005.1
20260505215617 66 105 0.9 3.5 0.00 0.00 0.00 50 1005.2
20260505215054 67 137 0.9 2.6 0.00 0.00 0.00 49 1005.2
20260505214553 67 187 0.9 2.6 0.00 0.00 0.00 48 1005.2
20260505214516 67 187 0.0 2.6 0.00 0.00 0.00 48 1004.7
20260505214030 68 184 0.9 2.6 0.00 0.00 0.00 47 1005.2
20260505213518 68 182 1.7 7.0 0.00 0.00 0.00 47 1005.2
20260505213043 68 184 2.6 7.0 0.00 0.00 0.00 47 1004.6
20260505213004 68 157 1.7 7.0 0.00 0.00 0.00 47 1005.1
20260505212454 68 179 1.7 6.1 0.00 0.00 0.00 46 1005.1
20260505211940 69 151 1.7 6.1 0.00 0.00 0.00 46 1005.1
20260505211611 68 159 0.9 7.0 0.00 0.00 0.00 45 1004.7
20260505211424 69 215 2.6 7.0 0.00 0.00 0.00 45 1005.1
20260505210911 69 213 4.3 13.0 0.00 0.00 0.00 45 1005.3
20260505210355 69 245 6.1 12.2 0.00 0.00 0.00 45 1005.3
20260505210028 69 259 2.6 13.9 0.00 0.00 0.00 45 1004.9
20260505205846 69 154 6.1 13.9 0.00 0.00 0.00 45 1005.3
20260505205333 69 218 4.3 9.6 0.00 0.00 0.00 46 1005.4
20260505204820 70 209 4.3 9.6 0.00 0.00 0.00 46 1005.5
20260505204553 69 188 4.3 9.6 0.00 0.00 0.00 47 1005.0
20260505203013 69 154 5.2 8.7 0.00 0.00 0.00 48 1004.9
20260505201704 69 170 4.3 8.7 0.00 0.00 0.00 49 1005.3
20260505201536 69 147 2.6 9.6 0.00 0.00 0.00 49 1004.9
20260505201152 69 143 3.5 12.2 0.00 0.00 0.00 50 1005.3
20260505200640 68 169 1.7 7.8 0.00 0.00 0.00 52 1005.3
20260505200127 66 189 0.0 7.8 0.00 0.00 0.00 53 1005.3
20260505200104 66 184 1.7 7.8 0.00 0.00 0.00 53 1004.9
20260505195623 66 152 0.0 1.7 0.00 0.00 0.00 53 1005.3
20260505195111 67 152 0.0 1.7 0.00 0.00 0.00 52 1005.3
20260505194556 68 144 0.0 1.7 0.00 0.00 0.00 51 1005.2
20260505194531 68 144 0.0 1.7 0.00 0.00 0.00 51 1004.8
20260505194045 69 144 0.0 1.7 0.00 0.00 0.00 50 1005.3
20260505193533 70 144 0.0 1.7 0.00 0.00 0.00 48 1005.2
20260505193049 70 144 0.0 1.7 0.00 0.00 0.00 47 1004.8
20260505193014 70 144 0.0 1.7 0.00 0.00 0.00 47 1005.2
20260505192502 71 143 0.9 3.5 0.00 0.00 0.00 46 1005.2
20260505191951 71 143 0.9 2.6 0.00 0.00 0.00 46 1005.2
20260505191515 71 150 0.0 2.6 0.00 0.00 0.00 46 1004.8
20260505191438 71 150 0.9 4.3 0.00 0.00 0.00 45 1005.2
20260505190924 71 149 1.7 4.3 0.00 0.00 0.00 45 1005.2
20260505190410 72 150 1.7 7.0 0.00 0.00 0.00 44 1005.1